[[{"header":{"parameterUnit":"m.s-1","parameterCategory":1,"la1":30.2991,"la2":30.254,"lo1":-89.0895,"lo2":-89.0444,"dy":0.0017,"dx":0.0017,"nx":28,"ny":28,"refTime":"2024-04-04T21:00:00:Z","depth":0,"parameterNumber":2,"parameterNumberName":"U-component_of_WINDS"},"data":[0,0,0,0,0,0,0,0,0,0,0,0,0,0,0,0,0,0,0,0,0,0,0,0,0,0,0,0,0,0,0,0,0,0,0,0,0,0,0,0,0,0,0,0,0,0,0,0,0,0,0,0,0,0,0,0,0,0,-0.335,-0.335,0,-0.3301,-0.33,-0.33,-0.3309,-0.331,-0.3311,-0.3311,-0.3258,-0.3256,-0.3254,0,0,0,0,0,0,0,0,0,0,0,0,0,-0.3451,-0.3449,-0.3351,-0.335,-0.3349,-0.3301,-0.33,-0.3299,-0.3309,-0.331,-0.3311,-0.3312,-0.3259,-0.3256,-0.3254,0,0,0,0,0,0,0,0,0,0,0,0,0,-0.3405,-0.3449,-0.3351,-0.3348,-0.3347,-0.3301,-0.33,-0.3299,-0.3308,-0.331,-0.3311,-0.3312,-0.326,-0.3257,-0.3253,-0.3206,0,0,-0.3243,-0.3242,0,0,0,0,0,0,0,0,-0.3408,-0.3401,-0.3349,-0.3348,-0.3347,-0.3312,-0.3316,-0.3268,-0.3308,-0.3323,-0.3311,-0.3313,-0.3275,-0.3271,-0.3258,-0.3203,-0.3201,-0.3243,-0.3241,-0.3239,-0.3238,0,0,0,0,0,0,0,-0.3411,-0.3404,-0.3331,-0.3348,-0.3347,-0.3349,-0.3344,-0.3307,-0.3292,-0.3322,-0.3322,-0.3317,-0.3275,-0.3261,-0.3257,-0.32,-0.3243,-0.324,-0.3238,-0.3236,-0.3102,-0.3101,0,0,0,0,0,0,-0.3415,-0.3406,-0.3332,-0.3329,-0.3381,-0.3346,-0.334,-0.3322,-0.3293,-0.3289,-0.3315,-0.3317,-0.3266,-0.3261,-0.3255,-0.3197,-0.3239,-0.3236,-0.3234,-0.3104,-0.3102,-0.31,0,0,0,0,0,0,-0.3417,-0.3409,-0.3334,-0.3368,-0.3358,-0.3343,-0.3322,-0.332,-0.3307,-0.3288,-0.3285,-0.3305,-0.3267,-0.326,-0.3218,-0.3195,-0.3235,-0.3231,-0.3106,-0.3103,-0.3101,-0.308,0,0,0,0,0,0,-0.342,-0.3409,-0.3392,-0.3367,-0.3357,-0.3299,-0.3321,-0.3319,-0.3302,-0.3303,-0.3277,-0.3274,-0.3268,-0.3223,-0.3214,-0.3191,-0.3229,-0.3108,-0.3105,-0.3102,-0.3083,-0.3078,-0.3073,0,0,0,0,0,-0.3424,-0.3388,-0.3391,-0.3382,-0.3334,-0.3297,-0.3291,-0.3286,-0.33,-0.3281,-0.3269,-0.3275,-0.3199,-0.3218,-0.3209,-0.3185,-0.3109,-0.3105,-0.3102,-0.3085,-0.3079,-0.3073,0,0,0,0,0,0,-0.3409,-0.3384,-0.3388,-0.3343,-0.3322,-0.3299,-0.3276,-0.3279,-0.3254,-0.3256,-0.325,-0.3244,-0.3201,-0.3188,-0.3211,-0.3136,-0.3156,-0.315,-0.3146,-0.314,-0.3135,-0.3139,-0.3226,0,0,0,0,0,-0.3401,-0.3373,-0.3353,-0.3315,-0.3305,-0.3292,-0.3276,-0.3273,-0.3251,-0.3242,-0.3227,-0.3205,-0.3176,-0.3157,-0.313,-0.3081,-0.3075,-0.3059,-0.3054,-0.305,-0.3046,-0.3018,-0.3011,-0.3089,-0.3089,-0.3089,0,0,-0.3383,-0.3366,-0.3349,-0.3312,-0.3296,-0.3266,-0.3285,-0.3253,-0.3231,-0.3237,-0.3197,-0.3184,-0.3159,-0.3114,-0.3093,-0.3102,-0.3023,-0.3046,-0.3043,-0.3041,-0.3014,-0.3007,-0.3,-0.3087,-0.3087,-0.3087,0,0,-0.3336,-0.3321,-0.3287,-0.3271,-0.3246,-0.3237,-0.3229,-0.3205,-0.3198,-0.3157,-0.3161,-0.3134,-0.3085,-0.3067,-0.3051,-0.2996,-0.3,-0.2987,-0.2961,-0.2934,-0.2928,-0.2923,-0.2903,-0.2896,-0.2982,-0.2982,-0.2982,0,-0.3317,-0.3274,-0.327,-0.3238,-0.3221,-0.3225,-0.3191,-0.3174,-0.3142,-0.313,-0.314,-0.3078,-0.3062,-0.3011,-0.2998,-0.2985,-0.2975,-0.299,-0.293,-0.2924,-0.2919,-0.29,-0.2892,-0.2981,-0.2981,-0.2981,-0.2981,0,-0.3252,-0.3222,-0.3198,-0.3167,-0.3147,-0.3114,-0.3103,-0.3084,-0.3082,-0.3073,-0.303,-0.301,-0.2979,-0.2967,-0.2965,-0.2916,-0.2922,-0.2931,-0.2951,-0.291,-0.2892,-0.2885,-0.2979,-0.2979,-0.298,-0.298,0,0,-0.3196,-0.3161,-0.3153,-0.3138,-0.311,-0.3087,-0.3053,-0.3023,-0.3006,-0.2983,-0.2954,-0.2912,-0.292,-0.2902,-0.2898,-0.2875,-0.2832,-0.2887,-0.2886,-0.2877,-0.2776,-0.2769,-0.2761,-0.2834,-0.2833,-0.2832,-0.2778,0,-0.3146,-0.3088,-0.3082,-0.303,-0.3002,-0.3005,-0.2975,-0.2955,-0.2944,-0.2918,-0.2906,-0.2877,-0.289,-0.2879,-0.2856,-0.2842,-0.2811,-0.2846,-0.2807,-0.2806,-0.2814,-0.2751,-0.2745,-0.2695,-0.2771,-0.2769,-0.2769,0,-0.3081,-0.3056,-0.3001,-0.2977,-0.2965,-0.2939,-0.291,-0.2885,-0.2861,-0.2855,-0.2834,-0.2834,-0.2798,-0.2819,-0.2769,-0.2793,-0.2776,-0.2767,-0.2765,-0.2761,-0.2785,-0.2746,-0.2678,-0.2671,-0.2757,-0.2758,-0.2759,0,-0.3045,-0.2998,-0.2958,-0.2946,-0.2917,-0.2898,-0.2885,-0.2862,-0.2844,-0.2818,-0.2806,-0.2776,-0.276,-0.2737,-0.2727,-0.2743,-0.2678,-0.2698,-0.2672,-0.2672,-0.2658,-0.2659,-0.2587,-0.2647,-0.2647,-0.2647,-0.2648,0,-0.299,-0.2957,-0.2942,-0.2918,-0.288,-0.2873,-0.2835,-0.2822,-0.2802,-0.2775,-0.2775,-0.275,-0.2739,-0.2711,-0.2703,-0.2663,-0.2656,-0.2649,-0.2648,-0.265,-0.265,-0.2639,-0.2642,-0.2645,-0.2646,-0.2646,-0.2647,0,-0.2944,-0.2933,-0.2891,-0.2866,-0.2859,-0.2832,-0.281,-0.2787,-0.2776,-0.2742,-0.2733,-0.2716,-0.2684,-0.2672,-0.2632,-0.2627,-0.258,-0.2582,-0.2589,-0.2588,-0.2562,-0.2565,-0.2481,-0.2469,-0.2537,-0.2536,-0.2536,0,-0.291,-0.2884,-0.2857,-0.2839,-0.2825,-0.2796,-0.2777,-0.2769,-0.2749,-0.272,-0.2699,-0.2667,-0.2641,-0.2588,-0.2572,-0.2541,-0.2541,-0.2514,-0.2537,-0.2539,-0.2541,-0.2543,-0.254,-0.251,-0.2509,-0.2509,-0.2508,0,-0.2852,-0.2847,-0.282,-0.2791,-0.2769,-0.2745,-0.2723,-0.2708,-0.2696,-0.2673,-0.264,-0.262,-0.2579,-0.2546,-0.2515,-0.25,-0.2502,-0.2501,-0.2493,-0.2495,-0.25,-0.2497,-0.2577,-0.2503,-0.2503,-0.2504,-0.2504,-0.2504,-0.2811,-0.2787,-0.2764,-0.2734,-0.2716,-0.2694,-0.2671,-0.2657,-0.2629,-0.2596,-0.2592,-0.2556,-0.2532,-0.249,-0.2473,-0.2445,-0.2452,-0.2441,-0.2438,-0.2435,-0.2434,-0.2504,-0.2439,-0.2439,-0.2439,-0.2439,-0.2439,0,-0.2752,-0.2737,-0.2709,-0.2677,-0.2653,-0.2657,-0.2631,-0.2611,-0.258,-0.2557,-0.2531,-0.2492,-0.246,-0.2441,-0.2409,-0.239,-0.239,-0.2382,-0.2383,-0.238,-0.2429,-0.2439,-0.2382,-0.2382,-0.2382,-0.2382,-0.2382,-0.2382,-0.2718,-0.2679,-0.2672,-0.2623,-0.2608,-0.2573,-0.2558,-0.2538,-0.252,-0.2477,-0.2451,-0.2439,-0.2417,-0.2383,-0.2354,-0.2349,-0.2337,-0.2328,-0.2324,-0.237,-0.2376,-0.2382,-0.2391,-0.2326,-0.2326,-0.2277,-0.2277,-0.2277]},{"header":{"parameterUnit":"m.s-1","parameterCategory":1,"la1":30.2991,"la2":30.254,"lo1":-89.0895,"lo2":-89.0444,"dy":0.0017,"dx":0.0017,"nx":28,"ny":28,"refTime":"2024-04-04T21:00:00:Z","depth":0,"parameterNumber":3,"parameterNumberName":"V-component_of_WINDS"},"data":[0,0,0,0,0,0,0,0,0,0,0,0,0,0,0,0,0,0,0,0,0,0,0,0,0,0,0,0,0,0,0,0,0,0,0,0,0,0,0,0,0,0,0,0,0,0,0,0,0,0,0,0,0,0,0,0,0,0,-0.7101,-0.7101,0,-0.7133,-0.7133,-0.7134,-0.7202,-0.7204,-0.7205,-0.7207,-0.7237,-0.7237,-0.7236,0,0,0,0,0,0,0,0,0,0,0,0,0,-0.7097,-0.7097,-0.7101,-0.7101,-0.7101,-0.7133,-0.7133,-0.7134,-0.7202,-0.7204,-0.7206,-0.7207,-0.7237,-0.7237,-0.7236,0,0,0,0,0,0,0,0,0,0,0,0,0,-0.7111,-0.7097,-0.7101,-0.7139,-0.7143,-0.7133,-0.7133,-0.7134,-0.7202,-0.7204,-0.7206,-0.7208,-0.7238,-0.7237,-0.7236,-0.719,0,0,-0.7234,-0.7234,0,0,0,0,0,0,0,0,-0.711,-0.7111,-0.7133,-0.7137,-0.7141,-0.7166,-0.7144,-0.7153,-0.7201,-0.7179,-0.7207,-0.7209,-0.7212,-0.7213,-0.7215,-0.7191,-0.7193,-0.7234,-0.7234,-0.7233,-0.7233,0,0,0,0,0,0,0,-0.7109,-0.711,-0.7113,-0.7134,-0.7138,-0.7155,-0.7159,-0.7146,-0.7183,-0.7182,-0.7187,-0.719,-0.7214,-0.7215,-0.7216,-0.7193,-0.7234,-0.7233,-0.7233,-0.7233,-0.7135,-0.7133,0,0,0,0,0,0,-0.7103,-0.7109,-0.7112,-0.7114,-0.7131,-0.7153,-0.7158,-0.7156,-0.7184,-0.719,-0.7188,-0.7193,-0.7215,-0.7217,-0.7217,-0.7165,-0.7233,-0.7233,-0.7232,-0.7137,-0.7135,-0.7132,0,0,0,0,0,0,-0.7102,-0.7102,-0.7111,-0.7113,-0.7116,-0.7151,-0.7148,-0.7155,-0.7156,-0.7189,-0.7195,-0.7182,-0.7217,-0.7218,-0.7197,-0.7167,-0.7232,-0.7232,-0.714,-0.7136,-0.7133,-0.706,0,0,0,0,0,0,-0.7102,-0.7102,-0.7085,-0.7112,-0.7115,-0.709,-0.7146,-0.7154,-0.7155,-0.7162,-0.7185,-0.7191,-0.7219,-0.7197,-0.7196,-0.7167,-0.7231,-0.7143,-0.7138,-0.7134,-0.7066,-0.7055,-0.7046,0,0,0,0,0,-0.7102,-0.7062,-0.7083,-0.7083,-0.7094,-0.7088,-0.709,-0.7123,-0.7153,-0.7135,-0.7157,-0.719,-0.7171,-0.7195,-0.7194,-0.7164,-0.7144,-0.7139,-0.7135,-0.707,-0.7057,-0.7046,0,0,0,0,0,0,-0.7028,-0.7066,-0.709,-0.7058,-0.707,-0.71,-0.7079,-0.7109,-0.7111,-0.7117,-0.7159,-0.7163,-0.7136,-0.7149,-0.7174,-0.7122,-0.7163,-0.7158,-0.7114,-0.7103,-0.7093,-0.709,-0.723,0,0,0,0,0,-0.7009,-0.7001,-0.7034,-0.7003,-0.7008,-0.7042,-0.7041,-0.7066,-0.7079,-0.7084,-0.7103,-0.7114,-0.7111,-0.7108,-0.7107,-0.7069,-0.7075,-0.7048,-0.7039,-0.703,-0.7025,-0.7007,-0.6995,-0.7116,-0.7116,-0.7117,0,0,-0.6967,-0.6987,-0.6979,-0.6989,-0.7,-0.6991,-0.7045,-0.7033,-0.7027,-0.7082,-0.7063,-0.7078,-0.7093,-0.7063,-0.7051,-0.7072,-0.6993,-0.7024,-0.7018,-0.7016,-0.7,-0.6989,-0.6979,-0.7113,-0.7114,-0.7114,0,0,-0.6887,-0.6902,-0.6878,-0.6889,-0.6907,-0.693,-0.6925,-0.6951,-0.6963,-0.6945,-0.6987,-0.698,-0.6973,-0.6982,-0.6986,-0.6913,-0.6943,-0.6911,-0.686,-0.6841,-0.6832,-0.6823,-0.6797,-0.6787,-0.6906,-0.6906,-0.6906,0,-0.6833,-0.6822,-0.6861,-0.6847,-0.6849,-0.6901,-0.6877,-0.6886,-0.6901,-0.6902,-0.6927,-0.6921,-0.6935,-0.6908,-0.689,-0.6892,-0.6887,-0.6908,-0.683,-0.6822,-0.6815,-0.679,-0.678,-0.6902,-0.6902,-0.6903,-0.6903,0,-0.6754,-0.6746,-0.6724,-0.674,-0.6741,-0.6721,-0.6757,-0.6754,-0.678,-0.6801,-0.6783,-0.6802,-0.6806,-0.6802,-0.6827,-0.6779,-0.6792,-0.6823,-0.6865,-0.6799,-0.6776,-0.6767,-0.6896,-0.6897,-0.6899,-0.69,0,0,-0.6626,-0.6666,-0.6657,-0.6665,-0.669,-0.6684,-0.6668,-0.6673,-0.6668,-0.6679,-0.6666,-0.666,-0.669,-0.6694,-0.6721,-0.6705,-0.6646,-0.6738,-0.6739,-0.6719,-0.6595,-0.657,-0.6559,-0.6667,-0.6666,-0.6664,-0.6593,0,-0.6551,-0.6525,-0.6561,-0.6527,-0.652,-0.657,-0.6556,-0.657,-0.659,-0.6587,-0.6609,-0.6604,-0.6643,-0.6647,-0.6633,-0.6655,-0.6621,-0.6661,-0.6655,-0.6654,-0.6648,-0.6547,-0.6521,-0.6453,-0.6585,-0.6583,-0.6582,0,-0.6458,-0.6466,-0.6431,-0.646,-0.6458,-0.6444,-0.6453,-0.6449,-0.6466,-0.6482,-0.6488,-0.6521,-0.6507,-0.655,-0.6532,-0.6558,-0.6559,-0.6569,-0.6568,-0.6567,-0.6613,-0.6543,-0.6432,-0.6421,-0.6569,-0.657,-0.6571,0,-0.6368,-0.6369,-0.6349,-0.6354,-0.6387,-0.6376,-0.6389,-0.6409,-0.641,-0.6418,-0.6419,-0.6424,-0.6427,-0.6431,-0.6465,-0.6492,-0.6442,-0.6487,-0.6455,-0.6453,-0.644,-0.644,-0.6326,-0.6442,-0.6442,-0.6442,-0.6442,0,-0.6279,-0.6255,-0.6308,-0.6295,-0.6271,-0.6314,-0.6289,-0.6307,-0.6324,-0.6316,-0.6361,-0.6352,-0.6398,-0.6394,-0.6421,-0.6402,-0.6403,-0.6415,-0.6422,-0.641,-0.6408,-0.6409,-0.6414,-0.644,-0.644,-0.6441,-0.6441,0,-0.6172,-0.6206,-0.6188,-0.6221,-0.6229,-0.621,-0.6239,-0.6228,-0.6253,-0.6242,-0.6242,-0.628,-0.6278,-0.6313,-0.6318,-0.6336,-0.6305,-0.6321,-0.6299,-0.6303,-0.6268,-0.6271,-0.615,-0.6136,-0.6262,-0.626,-0.6259,0,-0.6112,-0.6095,-0.6128,-0.6126,-0.6137,-0.6134,-0.6136,-0.6178,-0.6178,-0.6198,-0.6185,-0.6188,-0.6192,-0.6187,-0.6215,-0.6219,-0.6235,-0.6193,-0.6236,-0.6225,-0.6234,-0.6234,-0.6232,-0.6183,-0.6181,-0.618,-0.6179,0,-0.6001,-0.602,-0.6022,-0.603,-0.6032,-0.604,-0.6051,-0.6047,-0.6093,-0.6091,-0.6091,-0.6094,-0.6101,-0.6102,-0.6113,-0.6126,-0.616,-0.6166,-0.6158,-0.6145,-0.6133,-0.6138,-0.6273,-0.6168,-0.6169,-0.617,-0.617,-0.6171,-0.5916,-0.5904,-0.5925,-0.5926,-0.5939,-0.5949,-0.5942,-0.5966,-0.5966,-0.5975,-0.6001,-0.5996,-0.6016,-0.6033,-0.6044,-0.6041,-0.6062,-0.6051,-0.6048,-0.6045,-0.6038,-0.6135,-0.6043,-0.6044,-0.6044,-0.6045,-0.6045,0,-0.5807,-0.5824,-0.5825,-0.5839,-0.584,-0.5874,-0.5889,-0.5887,-0.5883,-0.5898,-0.5902,-0.5902,-0.5905,-0.5934,-0.594,-0.5933,-0.5948,-0.5933,-0.5933,-0.5935,-0.6019,-0.6024,-0.592,-0.592,-0.592,-0.592,-0.592,-0.592,-0.575,-0.5732,-0.5754,-0.5743,-0.576,-0.5757,-0.5762,-0.5772,-0.5785,-0.5783,-0.5786,-0.5806,-0.5827,-0.5836,-0.584,-0.5849,-0.5848,-0.5827,-0.5841,-0.5918,-0.5929,-0.5941,-0.5946,-0.5827,-0.5827,-0.5757,-0.5757,-0.5756]}]]